Time,TemperatureF,DewpointF,PressureIn,WindDirection,WindDirectionDegrees,WindSpeedMPH,WindSpeedGustMPH,Humidity,HourlyPrecipIn,Conditions,Clouds,dailyrainin,SolarRadiationWatts/m^2,SoftwareType,DateUTC
2013-02-19 00:10:00,23.7,12.0,30.07,SSE,148,3.0,8.0,60,0.00,,,0.00,0,weatherlink.com 1.10,2013-02-19 05:10:00,
2013-02-19 00:24:00,24.4,12.0,30.07,SE,128,5.0,12.0,59,0.00,,,0.00,0,weatherlink.com 1.10,2013-02-19 05:24:00,
2013-02-19 00:40:00,25.1,12.0,30.06,SW,214,2.0,9.0,59,0.00,,,0.00,0,weatherlink.com 1.10,2013-02-19 05:40:00,
2013-02-19 00:55:00,25.6,13.0,30.06,SSE,157,1.0,8.0,58,0.00,,,0.00,0,weatherlink.com 1.10,2013-02-19 05:55:00,
2013-02-19 01:10:00,25.5,12.0,30.05,ESE,115,1.0,7.0,58,0.00,,,0.00,0,weatherlink.com 1.10,2013-02-19 06:10:00,
2013-02-19 01:25:00,25.7,13.0,30.05,SSE,147,3.0,7.0,58,0.00,,,0.00,0,weatherlink.com 1.10,2013-02-19 06:25:00,
2013-02-19 01:40:00,26.1,13.0,30.05,East,79,6.0,10.0,58,0.00,,,0.00,0,weatherlink.com 1.10,2013-02-19 06:40:00,
2013-02-19 01:55:00,26.2,13.0,30.04,East,89,2.0,9.0,58,0.00,,,0.00,0,weatherlink.com 1.10,2013-02-19 06:55:00,
2013-02-19 02:10:00,25.6,13.0,30.03,NNE,28,2.0,3.0,59,0.00,,,0.00,0,weatherlink.com 1.10,2013-02-19 07:10:00,
2013-02-19 02:25:00,25.1,13.0,30.03,NE,56,4.0,7.0,61,0.00,,,0.00,0,weatherlink.com 1.10,2013-02-19 07:25:00,
2013-02-19 02:40:00,25.4,13.0,30.02,ENE,69,4.0,6.0,60,0.00,,,0.00,0,weatherlink.com 1.10,2013-02-19 07:40:00,
2013-02-19 02:55:00,24.8,13.0,30.02,ENE,70,0.0,4.0,61,0.00,,,0.00,0,weatherlink.com 1.10,2013-02-19 07:55:00,
2013-02-19 03:11:00,25.4,13.0,30.02,ENE,61,3.0,4.0,60,0.00,,,0.00,0,weatherlink.com 1.10,2013-02-19 08:11:00,
2013-02-19 03:26:00,25.1,13.0,30.00,East,87,0.0,5.0,60,0.00,,,0.00,0,weatherlink.com 1.10,2013-02-19 08:26:00,
2013-02-19 03:40:00,24.0,13.0,30.00,NNE,15,0.0,3.0,62,0.00,,,0.00,0,weatherlink.com 1.10,2013-02-19 08:40:00,
2013-02-19 03:55:00,23.6,13.0,29.99,NE,34,3.0,4.0,63,0.00,,,0.00,0,weatherlink.com 1.10,2013-02-19 08:55:00,
2013-02-19 04:11:00,23.6,13.0,29.97,SE,134,0.0,3.0,63,0.00,,,0.00,0,weatherlink.com 1.10,2013-02-19 09:11:00,
2013-02-19 04:26:00,24.4,13.0,29.97,East,84,0.0,3.0,63,0.00,,,0.00,0,weatherlink.com 1.10,2013-02-19 09:26:00,
2013-02-19 04:41:00,24.8,14.0,29.96,East,83,0.0,3.0,64,0.00,,,0.00,0,weatherlink.com 1.10,2013-02-19 09:41:00,
2013-02-19 04:56:00,24.7,14.0,29.95,NE,44,1.0,3.0,64,0.00,,,0.00,0,weatherlink.com 1.10,2013-02-19 09:56:00,
2013-02-19 05:11:00,24.5,14.0,29.95,ENE,64,1.0,4.0,64,0.00,,,0.00,0,weatherlink.com 1.10,2013-02-19 10:11:00,
2013-02-19 05:26:00,24.4,14.0,29.93,East,100,0.0,5.0,64,0.00,,,0.00,0,weatherlink.com 1.10,2013-02-19 10:26:00,
2013-02-19 05:41:00,23.7,13.0,29.92,ENE,72,2.0,3.0,65,0.00,,,0.00,0,weatherlink.com 1.10,2013-02-19 10:41:00,
2013-02-19 05:56:00,23.4,14.0,29.91,East,101,5.0,5.0,66,0.00,,,0.00,0,weatherlink.com 1.10,2013-02-19 10:56:00,
2013-02-19 06:11:00,23.9,14.0,29.91,SE,136,2.0,10.0,66,0.00,,,0.00,0,weatherlink.com 1.10,2013-02-19 11:11:00,
2013-02-19 06:26:00,25.1,15.0,29.90,SE,128,5.0,12.0,66,0.00,,,0.00,0,weatherlink.com 1.10,2013-02-19 11:26:00,
2013-02-19 06:41:00,25.7,15.0,29.88,ESE,109,0.0,5.0,64,0.00,,,0.00,0,weatherlink.com 1.10,2013-02-19 11:41:00,
2013-02-19 06:56:00,25.6,16.0,29.88,SE,140,4.0,7.0,66,0.00,,,0.00,16,weatherlink.com 1.10,2013-02-19 11:56:00,
2013-02-19 07:11:00,27.1,17.0,29.87,SSE,162,6.0,10.0,66,0.00,,,0.00,21,weatherlink.com 1.10,2013-02-19 12:11:00,
2013-02-19 07:26:00,29.5,18.0,29.87,SSE,155,8.0,13.0,63,0.00,,,0.00,37,weatherlink.com 1.10,2013-02-19 12:26:00,
2013-02-19 07:41:00,30.8,19.0,29.86,SSE,163,1.0,12.0,62,0.00,,,0.00,54,weatherlink.com 1.10,2013-02-19 12:41:00,
2013-02-19 07:57:00,31.4,20.0,29.85,SE,140,7.0,13.0,62,0.00,,,0.00,76,weatherlink.com 1.10,2013-02-19 12:57:00,
2013-02-19 08:11:00,32.8,20.0,29.84,SE,132,9.0,19.0,60,0.00,,,0.00,63,weatherlink.com 1.10,2013-02-19 13:11:00,
2013-02-19 08:26:00,33.8,20.0,29.84,SSE,168,14.0,21.0,58,0.00,,,0.00,67,weatherlink.com 1.10,2013-02-19 13:26:00,
2013-02-19 08:41:00,34.2,21.0,29.84,SE,132,8.0,15.0,59,0.00,,,0.00,58,weatherlink.com 1.10,2013-02-19 13:41:00,
2013-02-19 08:57:00,33.6,20.0,29.85,SSE,159,5.0,12.0,59,0.00,,,0.00,84,weatherlink.com 1.10,2013-02-19 13:57:00,
2013-02-19 09:12:00,33.1,21.0,29.84,ESE,107,7.0,14.0,61,0.00,,,0.00,104,weatherlink.com 1.10,2013-02-19 14:12:00,
2013-02-19 09:27:00,34.8,22.0,29.82,East,97,7.0,18.0,61,0.00,,,0.00,128,weatherlink.com 1.10,2013-02-19 14:27:00,
2013-02-19 09:42:00,32.5,20.0,29.82,ENE,57,4.0,8.0,60,0.00,,,0.00,137,weatherlink.com 1.10,2013-02-19 14:42:00,
2013-02-19 09:57:00,31.8,20.0,29.80,East,94,5.0,7.0,63,0.00,,,0.00,158,weatherlink.com 1.10,2013-02-19 14:57:00,
2013-02-19 10:12:00,33.0,22.0,29.79,East,95,5.0,8.0,64,0.00,,,0.00,151,weatherlink.com 1.10,2013-02-19 15:12:00,
2013-02-19 10:27:00,34.2,22.0,29.78,SE,134,2.0,4.0,62,0.00,,,0.00,248,weatherlink.com 1.10,2013-02-19 15:27:00,
2013-02-19 10:42:00,36.2,24.0,29.78,SE,138,6.0,10.0,61,0.00,,,0.00,141,weatherlink.com 1.10,2013-02-19 15:42:00,
2013-02-19 10:57:00,38.7,25.0,29.76,SSW,202,3.0,12.0,58,0.00,,,0.00,105,weatherlink.com 1.10,2013-02-19 15:57:00,
2013-02-19 11:12:00,38.9,24.0,29.75,SW,223,9.0,15.0,56,0.00,,,0.00,81,weatherlink.com 1.10,2013-02-19 16:12:00,
2013-02-19 11:27:00,38.3,26.0,29.75,South,183,18.0,19.0,62,0.00,,,0.00,77,weatherlink.com 1.10,2013-02-19 16:27:00,
2013-02-19 11:42:00,36.9,28.0,29.74,South,183,5.0,16.0,70,0.00,,,0.00,169,weatherlink.com 1.10,2013-02-19 16:42:00,
2013-02-19 11:57:00,36.9,28.0,29.73,South,171,12.0,12.0,71,0.01,,,0.01,120,weatherlink.com 1.10,2013-02-19 16:57:00,
2013-02-19 12:12:00,37.1,28.0,29.72,South,170,7.0,16.0,71,0.01,,,0.01,111,weatherlink.com 1.10,2013-02-19 17:12:00,
2013-02-19 12:27:00,36.2,30.0,29.72,SW,228,11.0,24.0,78,0.01,,,0.01,113,weatherlink.com 1.10,2013-02-19 17:27:00,
2013-02-19 12:42:00,35.3,31.0,29.71,SSW,209,4.0,18.0,83,0.01,,,0.01,118,weatherlink.com 1.10,2013-02-19 17:42:00,
2013-02-19 12:57:00,34.9,31.0,29.71,SSE,163,14.0,19.0,86,0.01,,,0.02,125,weatherlink.com 1.10,2013-02-19 17:57:00,
2013-02-19 13:12:00,34.6,32.0,29.69,SSW,192,4.0,20.0,89,0.01,,,0.02,116,weatherlink.com 1.10,2013-02-19 18:12:00,
2013-02-19 13:27:00,34.6,32.0,29.69,South,182,3.0,15.0,90,0.02,,,0.03,120,weatherlink.com 1.10,2013-02-19 18:27:00,
2013-02-19 13:43:00,34.4,32.0,29.68,SSE,161,3.0,18.0,90,0.02,,,0.03,88,weatherlink.com 1.10,2013-02-19 18:43:00,
2013-02-19 13:57:00,34.2,32.0,29.68,South,184,12.0,15.0,90,0.01,,,0.03,93,weatherlink.com 1.10,2013-02-19 18:57:00,
2013-02-19 14:13:00,33.7,32.0,29.67,SW,219,13.0,14.0,92,0.01,,,0.03,109,weatherlink.com 1.10,2013-02-19 19:13:00,
2013-02-19 14:27:00,33.5,32.0,29.67,SSE,165,4.0,9.0,93,0.00,,,0.03,49,weatherlink.com 1.10,2013-02-19 19:27:00,
2013-02-19 14:42:00,33.5,32.0,29.66,ESE,115,4.0,11.0,93,0.00,,,0.03,81,weatherlink.com 1.10,2013-02-19 19:42:00,
2013-02-19 14:57:00,33.7,32.0,29.65,South,172,4.0,11.0,93,0.00,,,0.03,81,weatherlink.com 1.10,2013-02-19 19:57:00,
2013-02-19 15:12:00,33.5,32.0,29.64,SSW,204,5.0,10.0,93,0.01,,,0.04,39,weatherlink.com 1.10,2013-02-19 20:12:00,
2013-02-19 15:27:00,33.4,32.0,29.64,SSW,211,6.0,13.0,94,0.01,,,0.04,37,weatherlink.com 1.10,2013-02-19 20:27:00,
2013-02-19 15:43:00,33.5,32.0,29.63,South,188,1.0,11.0,94,0.01,,,0.04,65,weatherlink.com 1.10,2013-02-19 20:43:00,
2013-02-19 15:58:00,33.5,32.0,29.63,SSW,195,5.0,10.0,94,0.02,,,0.05,60,weatherlink.com 1.10,2013-02-19 20:58:00,
2013-02-19 16:13:00,33.6,32.0,29.63,SSE,157,6.0,15.0,95,0.01,,,0.05,63,weatherlink.com 1.10,2013-02-19 21:13:00,
2013-02-19 16:28:00,33.9,32.0,29.62,SSE,158,1.0,10.0,94,0.01,,,0.05,51,weatherlink.com 1.10,2013-02-19 21:28:00,
2013-02-19 16:43:00,34.3,33.0,29.62,SSE,157,5.0,16.0,93,0.01,,,0.05,33,weatherlink.com 1.10,2013-02-19 21:43:00,
2013-02-19 16:58:00,34.4,32.0,29.62,SW,234,3.0,18.0,92,0.00,,,0.05,14,weatherlink.com 1.10,2013-02-19 21:58:00,
2013-02-19 17:13:00,34.3,33.0,29.61,SW,215,6.0,13.0,93,0.00,,,0.05,5,weatherlink.com 1.10,2013-02-19 22:13:00,
2013-02-19 17:28:00,34.1,32.0,29.62,SSW,206,4.0,14.0,93,0.00,,,0.05,0,weatherlink.com 1.10,2013-02-19 22:28:00,
2013-02-19 17:43:00,34.0,33.0,29.62,South,174,2.0,11.0,94,0.01,,,0.06,0,weatherlink.com 1.10,2013-02-19 22:43:00,
2013-02-19 17:58:00,33.9,32.0,29.63,SSW,213,5.0,14.0,94,0.01,,,0.06,0,weatherlink.com 1.10,2013-02-19 22:58:00,
2013-02-19 18:13:00,34.0,33.0,29.63,WSW,240,5.0,13.0,94,0.01,,,0.06,0,weatherlink.com 1.10,2013-02-19 23:13:00,
2013-02-19 18:28:00,34.0,33.0,29.64,WSW,238,5.0,10.0,94,0.02,,,0.07,0,weatherlink.com 1.10,2013-02-19 23:28:00,
2013-02-19 18:43:00,34.1,33.0,29.64,WSW,238,5.0,10.0,94,0.01,,,0.07,0,weatherlink.com 1.10,2013-02-19 23:43:00,
2013-02-19 18:58:00,34.1,33.0,29.65,SSW,202,6.0,9.0,95,0.01,,,0.07,0,weatherlink.com 1.10,2013-02-19 23:58:00,
2013-02-19 19:13:00,34.2,33.0,29.64,WSW,240,7.0,9.0,95,0.01,,,0.07,0,weatherlink.com 1.10,2013-02-20 00:13:00,
2013-02-19 19:28:00,32.1,30.0,29.66,West,273,9.0,24.0,93,0.00,,,0.07,0,weatherlink.com 1.10,2013-02-20 00:28:00,
2013-02-19 19:43:00,31.3,30.0,29.66,WNW,288,9.0,19.0,95,0.00,,,0.07,0,weatherlink.com 1.10,2013-02-20 00:43:00,
2013-02-19 19:58:00,30.4,29.0,29.67,West,277,9.0,28.0,95,0.00,,,0.07,0,weatherlink.com 1.10,2013-02-20 00:58:00,
2013-02-19 20:13:00,29.6,28.0,29.67,WNW,282,13.0,24.0,95,0.00,,,0.07,0,weatherlink.com 1.10,2013-02-20 01:13:00,
2013-02-19 20:28:00,29.3,28.0,29.67,NW,310,13.0,23.0,95,0.00,,,0.07,0,weatherlink.com 1.10,2013-02-20 01:28:00,
2013-02-19 20:43:00,29.0,28.0,29.68,WNW,292,11.0,28.0,94,0.00,,,0.07,0,weatherlink.com 1.10,2013-02-20 01:43:00,
2013-02-19 20:58:00,28.5,27.0,29.68,West,263,6.0,21.0,94,0.00,,,0.07,0,weatherlink.com 1.10,2013-02-20 01:58:00,
2013-02-19 21:13:00,28.1,27.0,29.68,WSW,251,4.0,18.0,95,0.00,,,0.07,0,weatherlink.com 1.10,2013-02-20 02:13:00,
2013-02-19 21:28:00,28.0,27.0,29.68,SW,236,4.0,16.0,94,0.00,,,0.07,0,weatherlink.com 1.10,2013-02-20 02:28:00,
2013-02-19 21:43:00,27.9,26.0,29.69,West,268,3.0,8.0,94,0.00,,,0.07,0,weatherlink.com 1.10,2013-02-20 02:43:00,
2013-02-19 21:58:00,27.7,26.0,29.68,West,265,3.0,10.0,94,0.00,,,0.07,0,weatherlink.com 1.10,2013-02-20 02:58:00,
2013-02-19 22:13:00,27.6,26.0,29.68,WNW,282,6.0,13.0,94,0.00,,,0.07,0,weatherlink.com 1.10,2013-02-20 03:13:00,
2013-02-19 22:28:00,27.6,26.0,29.68,West,271,8.0,13.0,93,0.00,,,0.07,0,weatherlink.com 1.10,2013-02-20 03:28:00,
2013-02-19 22:43:00,27.7,26.0,29.68,WSW,257,6.0,13.0,92,0.00,,,0.07,0,weatherlink.com 1.10,2013-02-20 03:43:00,
2013-02-19 22:58:00,27.7,26.0,29.68,West,266,3.0,11.0,92,0.00,,,0.07,0,weatherlink.com 1.10,2013-02-20 03:58:00,
2013-02-19 23:13:00,27.4,25.0,29.68,West,272,16.0,20.0,91,0.00,,,0.07,0,weatherlink.com 1.10,2013-02-20 04:13:00,
2013-02-19 23:28:00,26.9,24.0,29.68,WNW,282,8.0,21.0,88,0.00,,,0.07,0,weatherlink.com 1.10,2013-02-20 04:28:00,
2013-02-19 23:43:00,26.2,23.0,29.68,WNW,282,12.0,23.0,88,0.00,,,0.07,0,weatherlink.com 1.10,2013-02-20 04:43:00,
2013-02-19 23:58:00,25.7,22.0,29.68,WNW,303,10.0,23.0,86,0.00,,,0.07,0,weatherlink.com 1.10,2013-02-20 04:58:00,